EW9766 Weather Reports


time (UTC)temp
C
wind
direction
speed
KPH
gust
KPH
rain 1hr
cm
rain 24hr
cm
rain mn
cm
humidity
%
barometer
mb
20260505014532 22 258 8.0 20.9 0.00 0.00 0.00 36 1011.3
20260505013034 22 271 6.4 20.9 0.00 0.00 0.00 35 1011.4
20260505011536 22 245 6.4 20.9 0.00 0.00 0.00 34 1011.3
20260505010033 23 237 9.7 30.6 0.00 0.00 0.00 33 1011.3
20260505004529 23 237 9.7 33.8 0.00 0.00 0.00 33 1011.4
20260505003031 24 234 11.3 29.0 0.00 0.00 0.00 33 1011.3
20260505001528 24 234 14.5 29.0 0.00 0.00 0.00 33 1011.2
20260505000038 25 230 12.9 27.4 0.00 0.00 0.00 33 1011.3
20260504233031 26 236 8.0 22.5 0.00 0.00 0.00 33 1011.2
20260504230031 26 249 8.0 24.1 0.00 0.00 0.00 33 1011.3
20260504224531 26 237 9.7 24.1 0.00 0.00 0.00 33 1011.4
20260504223106 26 244 9.7 22.5 0.00 0.00 0.00 32 1011.4
20260504221536 26 243 11.3 22.5 0.00 0.00 0.00 32 1011.5
20260504220107 26 256 9.7 22.5 0.00 0.00 0.00 33 1011.6
20260504214535 26 275 11.3 27.4 0.00 0.00 0.00 32 1011.7
20260504213033 26 267 11.3 27.4 0.00 0.00 0.00 32 1011.7
20260504211532 26 271 12.9 22.5 0.00 0.00 0.00 31 1011.7
20260504203031 27 259 9.7 24.1 0.00 0.00 0.00 32 1011.9
20260504201607 27 273 9.7 27.4 0.00 0.00 0.00 33 1011.9
20260504200036 26 267 8.0 20.9 0.00 0.00 0.00 34 1012.0
20260504194534 26 288 9.7 20.9 0.00 0.00 0.00 35 1011.9
20260504193030 26 312 6.4 17.7 0.00 0.00 0.00 37 1012.0
20260504191533 26 315 6.4 17.7 0.00 0.00 0.00 38 1012.1
20260504190036 25 342 8.0 17.7 0.00 0.00 0.00 41 1012.2
20260504184533 25 345 8.0 16.1 0.00 0.00 0.00 41 1012.3
20260504183136 25 359 8.0 16.1 0.00 0.00 0.00 41 1012.3
20260504181529 25 8 6.4 12.9 0.00 0.00 0.00 41 1012.2
20260504180036 24 349 8.0 16.1 0.00 0.00 0.00 41 1012.2
20260504173032 24 355 4.8 11.3 0.00 0.00 0.00 41 1012.3
20260504171530 23 357 6.4 11.3 0.00 0.00 0.00 42 1012.3
20260504110106 13 141 9.7 16.1 0.00 0.00 0.00 57 1011.8
20260504090107 15 152 11.3 19.3 0.00 0.00 0.00 52 1011.9
20260504081647 15 150 11.3 19.3 0.00 0.00 0.00 50 1012.2
20260504070106 16 161 12.9 22.5 0.00 0.00 0.00 49 1012.1
20260504044530 17 158 9.7 17.7 0.00 0.00 0.00 46 1012.0
20260504043105 17 153 9.7 19.3 0.00 0.00 0.00 46 1011.9
20260504041728 -17 0 0.0 0.0 0.00 0.00 0.00 100
20260504034531 17 184 9.7 19.3 0.00 0.00 0.00 47 1011.4
20260504033106 17 176 8.0 11.3 0.00 0.00 0.00 48 1011.3
20260504031645 18 176 6.4 9.7 0.00 0.00 0.00 46 1011.1
20260504030031 20 157 6.4 9.7 0.00 0.00 0.00 42 1011.0
20260504024531 22 173 4.8 8.0 0.00 0.00 0.00 37 1011.0
20260504023036 24 251 1.6 6.4 0.00 0.00 0.00 33 1011.0
20260504020036 25 295 3.2 8.0 0.00 0.00 0.00 30 1011.3